Location: New Canada
(47.1017°N, 68.5042°W)
Time: 08:39:45
(UTC+00:00)

COSMOS 1818 DEB - Pass Details

Date: 29 November 2023
Orbit: 754 x 785 km, 65.0° (Epoch: 12 November)

Event Time Altitude Azimuth Distance (km) Brightness Sun altitude
Rises 22:39:31 0° 261° (W) 3,255 ? -18.4°
Reaches altitude 10° 22:42:25 10° 276° (W) 2,334 ? -18.9°
Maximum altitude 22:46:38 23° 328° (NNW) 1,621 ? -19.6°
Enters shadow 22:50:18 12° 16° (NNE) 2,187 ? -20.2°
